This demonstration page uses our WeatherBlox Daily Observations layout. Learn more.

Left ArrowRight Arrow

39.01783, -85.05884

Hourly Observations for September 29, 2017

Temp ( °F °C ) Dew Point ( °F °C ) Humidity (%) Winds ( mph kmh ) Pressure ( in mb ) Visibility ( mi km ) Precip ( " mm )
12:52 am 00:52 Mostly Clear 59 15 49 9.4 69 69 NNE 5 7 30.12 1020 10 16 0.00 0.00
1:52 am 01:52 Mostly Clear 57 13.9 49 9.4 74 74 N 3 6 30.12 1020 10 16 0.00 0.00
2:52 am 02:52 Mostly Clear 54 12.2 49 9.4 83 83 Calm 30.12 1020 10 16 0.00 0.00
3:52 am 03:52 Mostly Clear 55 12.8 49 9.4 80 80 Calm 30.11 1020 10 16 0.00 0.00
4:52 am 04:52 Mostly Clear 53 11.7 49 9.4 86 86 Calm 30.11 1020 10 16 0.00 0.00
5:52 am 05:52 Clear 54 12.2 51 10.6 90 90 NNW 6 9 30.13 1020 10 16 0.00 0.00
6:52 am 06:52 Mostly Clear 50 10 49 9.4 96 96 Calm 30.14 1021 10 16 0.00 0.00
7:52 am 07:52 Mostly Sunny 51 10.6 49 9.4 92 92 N 3 6 30.16 1021 10 16 0.00 0.00
8:52 am 08:52 Mostly Sunny 57 13.9 52 11.1 83 83 Calm 30.17 1022 10 16 0.00 0.00
9:52 am 09:52 Mostly Sunny 61 16.1 52 11.1 72 72 Calm 30.17 1022 10 16 0.00 0.00
10:52 am 10:52 Mostly Sunny 66 18.9 50 10 56 56 VRB 5 7 30.17 1022 10 16 0.00 0.00
11:52 am 11:52 Mostly Sunny 69 20.6 51 10.6 53 53 W 7 11 30.17 1022 10 16 0.00 0.00
12:52 pm 12:52 Mostly Sunny 71 21.7 49 9.4 46 46 W 9 15 30.15 1021 10 16 0.00 0.00
1:52 pm 13:52 Mostly Sunny 74 23.3 51 10.6 45 45 WNW 8 13 30.14 1021 10 16 0.00 0.00
2:52 pm 14:52 Mostly Sunny 76 24.4 49 9.4 39 39 W 10 17 30.11 1020 10 16 0.00 0.00
3:52 pm 15:52 Mostly Sunny 78 25.6 48 8.9 35 35 NW 14 22 30.11 1020 10 16 0.00 0.00
4:06 pm 16:06 Partly Cloudy 77 25 46 7.8 33 33 NW 14 22 30.09 1019 10 16 0.00 0.00
4:52 pm 16:52 Mostly Sunny 75 23.9 47 8.3 37 37 W 10 17 30.10 1019 10 16 0.00 0.00
5:52 pm 17:52 Mostly Cloudy 76 24.4 48 8.9 37 37 WSW 8 13 30.10 1019 10 16 0.00 0.00
6:52 pm 18:52 Mostly Sunny 74 23.3 48 8.9 40 40 NNW 9 15 30.11 1020 10 16 0.00 0.00
7:52 pm 19:52 Mostly Clear 70 21.1 48 8.9 46 46 NNW 8 13 30.13 1020 10 16 0.00 0.00
8:52 pm 20:52 Mostly Clear 68 20 47 8.3 47 47 N 14 22 30.16 1021 10 16 0.00 0.00
9:52 pm 21:52 Clear 65 18.3 45 7.2 49 49 N 10 17 30.18 1022 10 16 0.00 0.00
10:52 pm 22:52 Clear 62 16.7 44 6.7 52 52 N 10 17 30.20 1023 10 16 0.00 0.00
11:52 pm 23:52 Clear 61 16.1 44 6.7 54 54 N 14 22 30.22 1023 10 16 0.00 0.00

Powered by AerisWeather